Weather History for Hollywood, FL

Change the Weather History Date:

Saturday, February 9, 2013

  Actual Average (KFLL) Record (KFLL)
Temperature  
Mean Temperature 70 °F 70 °F  
Max Temperature 79 °F 77 °F 86 °F (1936)
Min Temperature 62 °F 64 °F 38 °F (1968)
Degree Days  
Heating Degree Days 0 1  
Month to date heating degree days 9  
Since 1 July heating degree days 89  
Cooling Degree Days 6 6  
Month to date cooling degree days 54  
Year to date cooling degree days 224  
Growing Degree Days 20 (Base 50)    
Moisture  
Dew Point 62 °F    
Average Humidity 80    
Maximum Humidity 100    
Minimum Humidity 58    
Precipitation  
Precipitation 0.00 in 0.11 in 2.87 in (1941)
Month to date precipitation 0.97  
Year to date precipitation 4.60  
Snow  
Snow 0.00 in - - ()
Month to date snowfall  
Since 1 July snowfall  
Snow Depth -    
Sea Level Pressure  
Sea Level Pressure 30.12 in    
Wind  
Wind Speed 7 mph (NE)    
Max Wind Speed 16 mph    
Max Gust Speed 22 mph    
Visibility 8 miles    
Events Fog    
T = Trace of Precipitation, MM = Missing Value Source: NWS Daily Summary

Daily Weather History Graph

Daily Weather History Graph

Search for Another Location

Airport:

Trip Planner

Search our weather history database for the weather conditions in past years. The results will help you decide how hot, cold, wet, or windy it might be!

Date:

Astronomy

Feb. 09, 2013 Rise Set
Actual Time 7:00 AM EST 6:10 PM EST
Civil Twilight 6:36 AM EST 6:34 PM EST
Nautical Twilight 6:09 AM EST 7:01 PM EST
Astronomical Twilight 5:42 AM EST 7:28 PM EST
Moon 6:11 AM EST (2/9) 5:47 PM EST (2/9)
Length of Visible Light 11h 57m
Length of Day
11h 09m
Waning Crescent, 0% of the Moon is Illuminated
Feb 9
Waning Crescent
Feb 10
New
Feb 17
First Quarter
Feb 25
Full
Mar 4
Last Quarter

Hourly Weather History & Observations

Time (EST) Temp. Dew Point Humidity Pressure Visibility Wind Dir Wind Speed Gust Speed Precip Events Conditions
12:53 AM 66.0 °F 55.9 °F 70% 30.05 in 10.0 mi NW 5.8 mph - N/A   Clear
1:53 AM 64.9 °F 57.9 °F 78% 30.05 in 10.0 mi NNW 5.8 mph - N/A   Clear
2:53 AM 63.0 °F 59.0 °F 87% 30.05 in 10.0 mi NNW 4.6 mph - N/A   Clear
3:53 AM 63.0 °F 60.1 °F 90% 30.05 in 10.0 mi NNW 6.9 mph - N/A   Clear
4:03 AM 62.6 °F 60.8 °F 94% 30.05 in 10.0 mi North 8.1 mph - N/A   Scattered Clouds
4:11 AM 62.6 °F 62.6 °F 100% 30.05 in 10.0 mi NNW 6.9 mph - N/A   Mostly Cloudy
4:18 AM 64.4 °F 62.6 °F 94% 30.05 in 10.0 mi NNW 4.6 mph - N/A   Mostly Cloudy
4:53 AM 64.0 °F 63.0 °F 96% 30.06 in 10.0 mi North 3.5 mph - N/A   Overcast
5:53 AM 64.0 °F 64.0 °F 100% 30.08 in 10.0 mi NNW 4.6 mph - N/A   Overcast
6:53 AM 64.0 °F 64.0 °F 100% 30.10 in 0.2 mi NNW 3.5 mph - N/A Fog Fog
7:00 AM 64.4 °F 64.4 °F 100% 30.10 in 10.0 mi NNW 3.5 mph - N/A Fog Fog
7:08 AM 64.4 °F 64.4 °F 100% 30.10 in 0.2 mi North 4.6 mph - N/A Fog Fog
7:53 AM 64.0 °F 64.0 °F 100% 30.12 in 0.2 mi Calm Calm - N/A Fog Fog
8:00 AM 64.4 °F 64.4 °F 100% 30.12 in 10.0 mi Calm Calm - N/A Fog Fog
8:07 AM 64.4 °F 64.4 °F 100% 30.12 in 0.8 mi Calm Calm - N/A   Partly Cloudy
8:38 AM 66.2 °F 66.2 °F 100% 30.13 in 4.0 mi Calm Calm - N/A   Partly Cloudy
8:53 AM 70.0 °F 66.9 °F 90% 30.13 in 4.0 mi NNE 4.6 mph - N/A   Partly Cloudy
9:53 AM 78.1 °F 64.0 °F 62% 30.14 in 10.0 mi East 11.5 mph - N/A   Partly Cloudy
10:53 AM 79.0 °F 64.0 °F 60% 30.15 in 10.0 mi East 13.8 mph - N/A   Scattered Clouds
11:53 AM 79.0 °F 64.0 °F 60% 30.15 in 10.0 mi East 13.8 mph - N/A   Mostly Cloudy
12:53 PM 79.0 °F 63.0 °F 58% 30.14 in 10.0 mi East 12.7 mph - N/A   Scattered Clouds
1:53 PM 79.0 °F 63.0 °F 58% 30.12 in 10.0 mi East 11.5 mph 19.6 mph N/A   Partly Cloudy
2:53 PM 78.1 °F 62.1 °F 58% 30.12 in 10.0 mi East 16.1 mph - N/A   Mostly Cloudy
3:53 PM 77.0 °F 62.1 °F 60% 30.12 in 10.0 mi East 12.7 mph - N/A   Scattered Clouds
4:53 PM 75.0 °F 62.1 °F 64% 30.14 in 10.0 mi ENE 16.1 mph 21.9 mph N/A   Mostly Cloudy
5:53 PM 73.0 °F 61.0 °F 66% 30.15 in 10.0 mi ENE 15.0 mph - N/A   Mostly Cloudy
6:53 PM 72.0 °F 61.0 °F 68% 30.15 in 10.0 mi ENE 12.7 mph - N/A   Partly Cloudy
7:53 PM 71.1 °F 61.0 °F 70% 30.16 in 10.0 mi ENE 11.5 mph - N/A   Clear
8:53 PM 71.1 °F 60.1 °F 68% 30.17 in 10.0 mi ENE 12.7 mph - N/A   Clear
9:53 PM 71.1 °F 59.0 °F 66% 30.19 in 10.0 mi ENE 10.4 mph - N/A   Clear
10:53 PM 71.1 °F 59.0 °F 66% 30.19 in 10.0 mi ENE 12.7 mph - N/A   Clear
11:53 PM 70.0 °F 59.0 °F 68% 30.19 in 10.0 mi ENE 10.4 mph - N/A   Scattered Clouds